This is the latest recevied weather packets stored in our database for station/object G1SCQ. If no packets are shown the sender has not sent any weather packets the latest 10 day(s).
| Time | Temp. | Humidity | Pressure | Rain* | Wind** | Luminosity | Snow |
|---|---|---|---|---|---|---|---|
| 1778171225 | 13.33° C | 61% | 1015.7 hPa | 0 mm | - | 114 W/m² | - |
| 1778170685 | 13.89° C | 60% | 1015.6 hPa | 0 mm | - | 147 W/m² | - |
| 1778170145 | 13.89° C | 59% | 1015.8 hPa | 0 mm | - | 173 W/m² | - |
| 1778169605 | 13.89° C | 59% | 1015.8 hPa | 0 mm | - | 175 W/m² | - |
| 1778169245 | 13.89° C | 58% | 1015.8 hPa | 0 mm | - | 186 W/m² | - |
| 1778168705 | 15° C | 57% | 1015.8 hPa | 0 mm | - | 239 W/m² | - |
| 1778168165 | 14.44° C | 58% | 1015.9 hPa | 0 mm | - | 345 W/m² | - |
| 1778167625 | 14.44° C | 59% | 1015.8 hPa | 0 mm | - | 241 W/m² | - |
| 1778167085 | 13.89° C | 60% | 1016 hPa | 0 mm | - | 250 W/m² | - |
| 1778166545 | 13.89° C | 60% | 1016 hPa | 0 mm | - | 331 W/m² | - |
| 1778166005 | 13.33° C | 63% | 1015.9 hPa | 0 mm | - | 178 W/m² | - |
| 1778165645 | 13.33° C | 62% | 1015.9 hPa | 0 mm | - | 160 W/m² | - |
| 1778165105 | 13.33° C | 60% | 1015.9 hPa | 0 mm | - | 160 W/m² | - |
| 1778164566 | 13.89° C | 60% | 1015.9 hPa | 0 mm | - | 151 W/m² | - |
| 1778164025 | 13.89° C | 60% | 1015.9 hPa | 0 mm | - | 156 W/m² | - |
| 1778163485 | 14.44° C | 58% | 1015.9 hPa | 0 mm | - | 172 W/m² | - |
| 1778162945 | 14.44° C | 59% | 1016.1 hPa | 0 mm | - | 273 W/m² | - |
| 1778162405 | 13.33° C | 61% | 1016.1 hPa | 0 mm | - | 213 W/m² | - |
| 1778162045 | 13.89° C | 61% | 1015.9 hPa | 0 mm | - | 173 W/m² | - |
| 1778161505 | 13.89° C | 62% | 1016.1 hPa | 0 mm | - | 205 W/m² | - |
| 1778160965 | 13.89° C | 66% | 1016 hPa | 0 mm | - | 215 W/m² | - |
| 1778160425 | 14.44° C | 62% | 1016.1 hPa | 0 mm | - | 194 W/m² | - |
| 1778159885 | 15° C | 66% | 1016.1 hPa | 0 mm | - | 755 W/m² | - |
| 1778159345 | 13.89° C | 66% | 1016.2 hPa | 0 mm | - | 736 W/m² | - |
| 1778158805 | 15° C | 66% | 1016.3 hPa | 0 mm | - | 181 W/m² | - |
* Rain latest hour (hover to see other rain measurements)
** Current wind speed in m/s (hover to see current wind gust speed)